Location: Lugrin
(46.4033°N, 6.6674°E)
Time: 06:38:57
(UTC+00:00)

COSMOS 2406 - Pass Details

Date: 18 September 2020
Orbit: 844 x 863 km, 71.0° (Epoch: 23 October)

Event Time Altitude Azimuth Distance (km) Brightness Sun altitude
Rises 20:47:24 0° 333° (NNW) 3,414 7.3 -30.7°
Reaches altitude 10° 20:49:51 10° 334° (NNW) 2,475 6.4 -31.0°
Enters shadow 20:54:22 58° 339° (NNW) 984 3.6 -31.6°
